Weather History for West Plains, MO

Change the Weather History Date:

Saturday, March 9, 2013

  Actual Average Record
Temperature  
Mean Temperature 58 °F 45 °F  
Max Temperature 71 °F 57 °F 81 °F (1974)
Min Temperature 45 °F 33 °F 9 °F (1996)
Degree Days  
Heating Degree Days 7 20  
Month to date heating degree days 240 194  
Since 1 July heating degree days 3552 3658  
Cooling Degree Days 0 0  
Month to date cooling degree days 0 0  
Year to date cooling degree days 0 0  
Growing Degree Days 7 (Base 50)    
Moisture  
Dew Point 34 °F    
Average Humidity 48    
Maximum Humidity 72    
Minimum Humidity 23    
Precipitation  
Precipitation T in 0.13 in 3.29 in (1964)
Month to date precipitation 0.17 1.07  
Year to date precipitation 7.49 6.63  
Sea Level Pressure  
Sea Level Pressure 29.95 in    
Wind  
Wind Speed 12 mph (SSE)    
Max Wind Speed 23 mph    
Max Gust Speed 33 mph    
Visibility 10 miles    
Events Rain    
T = Trace of Precipitation, MM = Missing Value Source: NWS Daily Summary

Daily Weather History Graph

Daily Weather History Graph

Search for Another Location

Airport:

Trip Planner

Search our weather history database for the weather conditions in past years. The results will help you decide how hot, cold, wet, or windy it might be!

Date:

Astronomy

Mar. 09, 2013 Rise Set
Actual Time 6:26 AM CST 6:09 PM CST
Civil Twilight 6:01 AM CST 6:35 PM CST
Nautical Twilight 5:31 AM CST 7:05 PM CST
Astronomical Twilight 5:00 AM CST 7:35 PM CST
Moon 4:48 AM CST (3/9) 4:14 PM CST (3/9)
Length of Visible Light 12h 34m
Length of Day
11h 42m
Waning Crescent, 5% of the Moon is Illuminated
Mar 9
Waning Crescent
Mar 11
New
Mar 19
First Quarter
Mar 27
Full
Apr 2
Last Quarter

Hourly Weather History & Observations

Time (CST) Temp. Windchill Dew Point Humidity Pressure Visibility Wind Dir Wind Speed Gust Speed Precip Events Conditions
12:53 AM 46.0 °F 41.9 °F 30.9 °F 56% 30.14 in 10.0 mi SE 8.1 mph - N/A   Overcast
1:53 AM 46.0 °F 43.1 °F 30.0 °F 54% 30.13 in 10.0 mi SE 5.8 mph - N/A   Overcast
2:53 AM 46.0 °F 42.5 °F 30.0 °F 54% 30.11 in 10.0 mi SE 6.9 mph - N/A   Overcast
3:53 AM 45.0 °F 40.1 °F 30.9 °F 58% 30.08 in 10.0 mi ESE 9.2 mph - 0.00 in   Overcast
4:53 AM 45.0 °F 41.8 °F 30.0 °F 56% 30.07 in 10.0 mi ESE 5.8 mph - N/A   Overcast
5:53 AM 46.0 °F 42.5 °F 30.0 °F 54% 30.07 in 10.0 mi SE 6.9 mph - N/A   Overcast
6:53 AM 46.0 °F 43.1 °F 30.0 °F 54% 30.07 in 10.0 mi SSE 5.8 mph - N/A   Overcast
7:53 AM 46.9 °F - 30.9 °F 54% 30.07 in 10.0 mi SE 8.1 mph - N/A   Overcast
8:53 AM 51.1 °F - 30.0 °F 44% 30.06 in 10.0 mi SSE 13.8 mph 23.0 mph N/A   Partly Cloudy
9:53 AM 55.9 °F - 32.0 °F 40% 30.03 in 10.0 mi SSE 12.7 mph - N/A   Clear
10:53 AM 62.1 °F - 34.0 °F 35% 30.01 in 10.0 mi South 16.1 mph 24.2 mph N/A   Clear
11:53 AM 64.9 °F - 30.9 °F 28% 29.97 in 10.0 mi South 18.4 mph 26.5 mph N/A   Clear
12:53 PM 66.0 °F - 32.0 °F 28% 29.93 in 10.0 mi South 17.3 mph 26.5 mph N/A   Clear
1:53 PM 69.1 °F - 30.0 °F 23% 29.88 in 10.0 mi South 18.4 mph 29.9 mph N/A   Clear
2:53 PM 69.1 °F - 30.9 °F 24% 29.86 in 10.0 mi South 10.4 mph 20.7 mph N/A   Mostly Cloudy
3:53 PM 68.0 °F - 33.1 °F 27% 29.84 in 10.0 mi South 11.5 mph - N/A   Overcast
4:53 PM 66.9 °F - 35.1 °F 31% 29.84 in 10.0 mi SSE 11.5 mph - N/A   Overcast
5:53 PM 64.9 °F - 37.9 °F 37% 29.84 in 10.0 mi SSE 10.4 mph - N/A   Overcast
6:53 PM 62.1 °F - 37.0 °F 39% 29.83 in 10.0 mi SE 9.2 mph - N/A   Mostly Cloudy
7:53 PM 60.1 °F - 35.1 °F 39% 29.83 in 10.0 mi SSE 13.8 mph 23.0 mph N/A   Mostly Cloudy
8:53 PM 57.9 °F - 37.9 °F 47% 29.84 in 10.0 mi SSE 17.3 mph 26.5 mph N/A   Mostly Cloudy
9:53 PM 57.0 °F - 45.0 °F 64% 29.83 in 10.0 mi SSE 13.8 mph 25.3 mph 0.00 in   Mostly Cloudy
10:53 PM 57.9 °F - 48.9 °F 72% 29.80 in 10.0 mi South 17.3 mph 24.2 mph N/A   Partly Cloudy
11:53 PM 57.9 °F - 48.0 °F 70% 29.78 in 10.0 mi SSE 17.3 mph 24.2 mph 0.00 in Rain Light Rain